Regional Weather Roundup
Issued by NWS Boston, MA

Home | Current Version | Previous Version | Text Only | Print | Product List | Glossary On
Versions: 1 2 3 4 5 6 7 8 9 10 11 12 13 14 15 16 17 18 19 20 21 22 23 24 25 26 27 28 29 30 31 32 33 34 35 36 37 38 39 40 41 42 43 44 45 46 47 48 49 50
000
ASUS41 KBOX 310910
RWRBOX

REGIONAL WEATHER ROUNDUP
NATIONAL WEATHER SERVICE TAUNTON MA
500 AM EDT THU JUL 31 2014

NOTE:  "FAIR" INDICATES FEW OR NO CLOUDS BELOW 12,000 FEET WITH NO
SIGNIFICANT WEATHER AND/OR OBSTRUCTIONS TO VISIBILITY.  THE FOLLOWING
OBSERVATION LOCATIONS DO NOT REPORT PRESENT WEATHER...PROVINCETOWN...
SMITHFIELD...BLOCK ISLAND...KEENE...AND OXFORD.

MAZALL-311000-
EASTERN MASSACHUSETTS

CITY           SKY/WX    TMP DP  RH WIND       PRES   REMARKS
BOSTON         CLEAR     65  57  75 SW6       30.07R
BEVERLY        CLEAR     56  53  90 CALM      30.06R
LAWRENCE       CLEAR     58  55  90 CALM      30.08R
BEDFORD        CLEAR     54  53  97 CALM      30.06R
BLUE HILL        N/A     62  57  83 SW10      30.07S
NORWOOD        CLEAR     52  50  93 CALM      30.07S FOG
MARSHFIELD     CLEAR     59  57  94 W3        30.09R
PLYMOUTH       CLEAR     55  52  89 CALM      30.09R
TAUNTON        CLEAR     50  49  96 CALM      30.08R FOG
NEW BEDFORD    CLEAR     56  55  97 CALM      30.07S
$$

MAZALL-311000-
CAPE COD AND THE ISLANDS

CITY           SKY/WX    TMP DP  RH WIND       PRES   REMARKS
FALMOUTH       NOT AVBL
HYANNIS        CLEAR     60  57  89 CALM      30.08R
CHATHAM        CLEAR     60  57  89 CALM      30.10R
PROVINCETOWN   CLEAR     64  59  82 SW8       30.09R
NANTUCKET      CLEAR     62  60  93 S5        30.11R
MARTHAS VNYRD  CLOUDY    50  49  96 CALM      30.09S FOG
$$

MAZALL-311000-
CENTRAL AND WESTERN MASSACHUSETTS

CITY           SKY/WX    TMP DP  RH WIND       PRES   REMARKS
WORCESTER      CLEAR     57  54  89 W7        30.09R
FITCHBURG      CLEAR     56  53  90 CALM      30.08R
ORANGE         PTCLDY    53  52  96 CALM      30.07R
SPRINGFIELD    CLEAR     54  53  98 CALM      30.06R
WESTFIELD      CLEAR     55  53  93 CALM      30.07R
NORTH ADAMS    CLOUDY    54  53  97 CALM      30.06S
PITTSFIELD     PTCLDY    52  51  97 CALM      30.06R
$$

RIZALL-311000-
RHODE ISLAND

CITY           SKY/WX    TMP DP  RH WIND       PRES   REMARKS
PROVIDENCE     CLEAR     58  56  93 CALM      30.08S
NEWPORT        CLEAR     60  57  89 CALM      30.08S
BLOCK ISLAND   CLEAR     64  59  82 SW7       30.08S
SMITHFIELD     CLEAR     57  52  82 CALM      30.08S
WESTERLY       CLEAR     57  54  89 CALM      30.09R
$$

CTZALL-311000-
CONNECTICUT

CITY           SKY/WX    TMP DP  RH WIND       PRES   REMARKS
BRADLEY INTL   CLEAR     58  54  86 CALM      30.06R
HARTFORD       CLEAR     61  58  90 CALM      30.06S
BRIDGEPORT     CLEAR     64  60  87 N3        30.06S
DANBURY        CLEAR     56  53  90 CALM      30.09R
GROTON         CLEAR     58  58 100 CALM      30.07S
NEW HAVEN      CLEAR     63  59  87 CALM      30.07R
CHESTER        FAIR      61  59  94 CALM      30.09R
MERIDEN        CLEAR     57  54  89 CALM      30.07S
WILLIMANTIC    PTCLDY    55  53  93 CALM      30.09R
OXFORD         CLEAR     57  52  82 CALM      30.09R
$$

MEZ002-015-021-024-NHZ003-005-008-011-012-014-VTZ005-008-311000-
NORTHERN NEW ENGLAND

CITY           SKY/WX    TMP DP  RH WIND       PRES   REMARKS
PORTLAND ME    FOG       61  60  97 E3        30.06S VSB 1/4
BANGOR ME      CLOUDY    63  59  87 S3        30.07R
CONCORD NH     CLOUDY    54  53  97 CALM      30.06S
MANCHESTER NH  PTCLDY    57  55  93 CALM      30.05R
NASHUA NH      CLEAR     55  54  97 CALM      30.07R
PORTSMOUTH NH  CLEAR     57  56  95 W1        30.05R
JAFFREY NH     CLEAR     52  50  93 CALM      30.08R
KEENE NH       CLEAR     52  45  76 CALM      30.07R
BURLINGTON VT  CLOUDY    60  56  86 E5        30.01R
MT. WASHINGTON PTCLDY    43  41  93 SW25        N/A
$$

NYZ052-076-311000-
EASTERN NEW YORK

CITY           SKY/WX    TMP DP  RH WIND       PRES   REMARKS
ALBANY         CLOUDY    65  57  75 S6        30.03R
NEW YORK CITY  PTCLDY    70  55  59 SW3       30.05S
$$

ANZALL-311000-
MARINE OBSERVATIONS

STATION/POSITION TIME  TEMP    WIND        PRES    VSBY  WAVE
                       AIR SEA DIR/SP/G                  HT/PER
                 (UTC) (F)     (DEG/KT/KT) (MB)    (MI)  (FT/S)
BOSTON BUOY      NOT AVBL
BUZZARDS BAY     NOT AVBL
NANTUCKET SOUND  NOT AVBL
MASS BAY-STELLWA NOT AVBL
ISLE OF SHOALS   NOT AVBL
S OF BLOCK IS    NOT AVBL
$$

......................KEY.........................
  SKY/WX - SKY CONDITION/PRESENT WEATHER
  TMP    - TEMPERATURE IN FAHRENHEIT
  DWPT   - DEWPOINT IN FAHRENHEIT
  RH     - RELATIVE HUMIDITY IN PERCENT
  WIND   - DIRECTION AND SPEED IN MPH
  PRES   - MEAN SEA LEVEL PRESSURE IN INCHES OF HG
  WCI    - WIND CHILL INDEX
  VSB    - VISIBILITY IN MILES
  HX     - HEAT INDEX
  TC     - TEMPERATURE IN CELSIUS
  VRB    - VARIABLE WIND DIRECTION
  N/A    - NOT AVAILABLE



USA.gov is the U.S. government's official web portal to all federal, state and local government web resources and services.